Location: Waco, TX
(31.5480°N, 97.1670°W)
Time: 05:43:08
(UTC-05:00)

ISS - Pass Details

Date: 24 September 2022
Orbit: 414 x 417 km, 51.6° (Epoch: 01 October)

Event Time Altitude Azimuth Distance (km) Brightness Sun altitude
Rises 23:45:37 0° 327° (NNW) 2,360 - -52.0°
Reaches altitude 10° 23:47:58 10° 341° (NNW) 1,494 - -52.3°
Maximum altitude 23:50:47 24° 38° (NE) 900 - -52.7°
Drops below altitude 10° 23:53:35 10° 95° (E) 1,488 - -53.1°
Sets 23:55:55 0° 110° (ESE) 2,348 - -53.4°
